www.pogodaiklimat.ru

Погода и климат >> Архив погоды >> Индонезия >> Купанг


ПОГОДА в Купанге

  • Прогноз погоды в Купанге
  • Монитор погоды в Купанге

АРХИВ ПОГОДЫ в Купанге

Время (UTC), дата Ветер
(напр.,м/с)
 
Видим.   Явления Облачность Т
(С)
Тd
(С)
f
(%)
Тe
(С)
Тes
(С)
Комфортность P
(гПа)
Po
(гПа)
Тmin
(С)
Tmax
(С)
R
(мм)
R24
(мм)
S
(см)
00 14.01 СВ 2 10 км 8/1 540 м
[Cu hum Ac trans Ci fib]
+27.4 +24.7 85 +39 +43 очень
душно
1008.1 995.9 +24.2 0.4
03 14.01 СЗ 1 10 км 9/3 500 м
[Cu hum Ac trans Ci fib]
+30.8 +26.6 78 +47 +57 опасность
перегрева
1007.7 995.5
06 14.01 ЮЗ 4 10 км 9/5 480 м
[Cb calv Ac trans Ci fib]
+31.5 +26.3 74 +48 +51 опасность
перегрева
1005.9 993.8
09 14.01 З 3 10 км 9/4 480 м
[Cu med, cong Ci sp]
+30.4 +26.1 78 +46 +46 опасность
перегрева
1005.3 993.2
12 14.01 ЮЗ 5 8000 м слаб. дождь 9/6 450 м
[Cu Sc As trans Ci fib]
+27.0 +24.8 88 +39 +39 очень
душно
1007.7 995.6 +31.6 0.0
15 14.01 СВ 2 8000 м {дождь} 9/9 450 м
[Cb calv As trans Ci fib]
+25.8 +24.6 93 +36 +36 очень
душно
1008.6 996.5 0.5
18 14.01 штиль 0 8000 м {дождь} 9/8 450 м
[Cb calv As trans Ci fib]
+25.6 +24.2 92 +35 +35 очень
душно
1007.2 995.1 0.5
21 14.01 З 2 8000 м слаб. дождь 9/3 450 м
[Cu Sc As trans Ci fib]
+25.7 +24.7 94 +36 +36 очень
душно
1007.8 995.6 0.0
00 15.01 В 2 10 км {дождь} 9/6 450 м
[Cu Sc Ac As Ci fib]
+26.2 +24.8 92 +37 +39 очень
душно
1008.8 996.6 +25.0 0.0
03 15.01 СЗ 5 10 км 8/5 480 м
[Cu Sc Ac trans Cs]
+30.0 +26.3 81 +46 +50 опасность
перегрева
1008.3 996.1
06 15.01 СЗ 7 10 км 8/6 480 м
[Cu med, cong As op Ci fib]
+29.5 +26.4 83 +45 +46 опасность
перегрева
1006.8 994.7
09 15.01 З 2 10 км 8/3 570 м
[Cu hum Ac trans Ci sp]
+28.6 +25.2 82 +42 +42 опасность
перегрева
1006.5 994.4
12 15.01 З 2 8000 м 9/3 540 м
[Cu Sc Ac und Ci fib]
+27.4 +25.5 89 +40 +40 очень
душно
1008.7 996.5 +30.6
15 15.01 штиль 0 8000 м 9/4 540 м
[Cu Sc Ac trans Ci fib]
+26.0 +23.8 88 +36 +36 очень
душно
1009.7 997.5
18 15.01 штиль 0 8000 м 8/6 500 м
[Cu Sc Ac trans Ci fib]
+25.6 +23.4 88 +35 +35 очень
душно
1007.4 995.3
21 15.01 штиль 0 8000 м 8/6 500 м
[Cu Sc Ac trans Ci fib]
+25.2 +23.3 89 +34 +34 очень
душно
1007.5 995.4
00 16.01 СЗ 2 10 км 9/6 300 м
[Cu Sc Ac As Cs]
+28.0 +24.7 82 +40 +42 очень
душно
1009.2 997.0 +25.2
03 16.01 СЗ 4 10 км {дождь} 9/9 450 м
[Cb cap Ac As Cs]
+31.2 +26.7 77 +48 +50 опасность
перегрева
1008.9 996.8 0.0
06 16.01 СЗ 5 10 км в посл. час гроза {дождь} 9/9 450 м
[Cb calv Ac trans Cs]
+30.4 +26.3 79 +46 +47 опасность
перегрева
1007.5 995.4 0.0
09 16.01 СЗ 4 10 км 9/9 450 м
[Cb calv Ac trans Cs]
+29.3 +26.1 83 +44 +44 опасность
перегрева
1007.1 994.9
12 16.01 З 1 8000 м 9/3 540 м
[Cu hum Ac trans Ci fib]
+27.8 +25.4 87 +41 +41 опасность
перегрева
1008.7 996.6 +31.4
15 16.01 З 1 8000 м 5/3 540 м
[Cu hum Ac trans Ci fib]
+27.0 +24.8 88 +39 +39 очень
душно
1009.9 997.8
18 16.01 ЮЗ 2 8000 м 5/5 500 м
[]
+26.0 +24.6 92 +37 +37 очень
душно
1008.3 996.2
21 16.01 Ю 1 8000 м 5/5 480 м
[Cb cap Ac trans Ci fib]
+25.4 +24.3 94 +35 +35 очень
душно
1008.0 995.8
00 17.01 С 2 8000 м {гроза} 8/6 300 м
[Cb cap Ac As Ci fib]
+27.8 +24.3 81 +39 +41 очень
душно
1009.5 997.3 +25.2 0.0
03 17.01 З 4 1000 м гроза, ливневой дождь 10/9 450 м
[Cb cap Ac As]
+26.6 +25.8 95 +39 +40 очень
душно
1009.9 997.7 14
06 17.01 ЮВ 2 8000 м слаб. дождь {гроза} 10/8 450 м
[Cb cap Ac As]
+25.8 +25.1 96 +37 +38 очень
душно
1008.1 995.9 29
09 17.01 В 1 8000 м {дождь} 10/6 450 м
[Cb cap Ac As]
+26.9 +25.4 92 +39 +40 очень
душно
1008.0 995.8 0.3
12 17.01 Ю 1 8000 м {дождь} 9/4 450 м
[Cu hum As op Cs]
+26.1 +25.3 95 +38 +38 очень
душно
1009.8 997.6 +29.9 0.0
15 17.01 ЮЗ 1 8000 м 9/4 450 м
[Cu hum As op Cs]
+25.4 +24.6 95 +36 +36 очень
душно
1010.2 998.0
18 17.01 В 1 8000 м {дождь} 10/8 450 м
[Cb cap As op]
+24.1 +23.1 94 +32 +32 очень
душно
1008.8 996.6 0.0
21 17.01 В 3 8000 м 8/4 480 м
[Cu hum As op Ci fib]
+23.4 +23.0 98 +33 +33 очень
душно
1007.8 995.7
00 18.01 штиль 0 10 км 4/3 600 м
[Cu med, cong As trans Ci fib]
+27.0 +25.0 89 +39 +45 очень
душно
1009.2 997.2 +23.2 43
03 18.01 СЗ 3 10 км 5/4 570 м
[Cu med, cong As trans Ci fib]
+30.0 +26.3 81 +46 +55 опасность
перегрева
1009.3 997.1
06 18.01 З 4 8000 м в посл. час дождь {гроза} 9/8 420 м
[Cb cap Ac trans Ci fib]
+27.6 +23.5 78 +37 +39 очень
душно
1007.9 995.7 0.0
09 18.01 СЗ 1 8000 м гроза без осадков 10/8 450 м
[Cb cap Ac As]
+27.7 +24.7 84 +39 +40 очень
душно
1007.8 995.7
12 18.01 ЮВ 2 8000 м в посл. час дождь {гроза} 8/5 450 м
[Cu Sc Ac As Ci fib]
+25.0 +23.9 94 +34 +34 очень
душно
1009.7 997.6 +30.2 0.0
15 18.01 В 1 8000 м {дождь} 8/5 450 м
[Cu Sc Ac As Ci fib]
+24.6 +23.8 95 +33 +33 очень
душно
1010.4 998.3 0.0
18 18.01 Ю 1 8000 м {дождь} 8/5 450 м
[Cu Sc Ac As Ci fib]
+24.5 +23.0 91 +32 +32 очень
душно
1008.3 996.2 0.0
21 18.01 штиль 0 8000 м 6/5 480 м
[Cu Sc Ac As Ci fib]
+24.7 +23.0 90 +33 +33 очень
душно
1008.9 996.7
00 19.01 СЗ 1 10 км гроза без осадков 9/9 300 м
[Cb cap As op Ci fib]
+26.4 +23.1 82 +35 +36 очень
душно
1010.1 998.0 +23.8 0.0
03 19.01 СЗ 3 10 км {гроза} 8/5 480 м
[Cu med, cong Ac As Ci fib]
+29.4 +25.4 79 +43 +49 опасность
перегрева
1010.3 998.1
06 19.01 СЗ 5 10 км {гроза} 6/6 480 м
[Cu Sc Ac As Ci sp]
+29.9 +27.1 85 +47 +51 опасность
перегрева
1007.7 995.6
09 19.01 Ю 5 1500 м гроза, ливневой дождь 9/9 450 м
[Cb cap Ci fib]
+28.0 +26.1 89 +42 +42 опасность
перегрева
1008.0 995.8 6
12 19.01 Ю 1 8000 м {гроза, дождь} 5/4 450 м
[Cu med, cong Ac trans Ci fib]
+26.2 +25.3 95 +38 +38 очень
душно
1009.1 997.0 +30.9 4
15 19.01 Ю 1 8000 м 6/3 500 м
[Cu Sc Ac trans Cs]
+26.0 +25.2 95 +37 +37 очень
душно
1010.2 998.0
18 19.01 СВ 1 8000 м 6/3 500 м
[Cu Sc Ac trans Cs]
+25.2 +24.5 96 +35 +35 очень
душно
1008.2 996.0
21 19.01 В 2 8000 м 6/4 480 м
[Cu Sc Ac trans Cs]
+24.5 +23.9 96 +33 +33 очень
душно
1008.3 996.1
00 20.01 В 2 10 км 8/5 480 м
[Cu Sc Ac trans Ci]
+27.2 +25.6 91 +40 +43 очень
душно
1009.6 997.4 +24.2 10
03 20.01 СЗ 3 10 км {дождь} 10/8 450 м
[Cb calv Ac trans Cs]
+30.8 +27.4 82 +49 +51 опасность
перегрева
1009.2 997.1 0.0
06 20.01 З 2 10 км {гроза, дождь} 9/4 500 м
[Cu hum Ac trans Cs]
+28.3 +26.8 92 +44 +50 опасность
перегрева
1007.2 995.1 25
09 20.01 СЗ 3 10 км слаб. дождь 9/6 540 м
[Cu med, cong Ac trans Cs]
+29.0 +26.7 87 +45 +45 опасность
перегрева
1006.9 994.7
12 20.01 штиль 0 8000 м {дождь} 9/4 480 м
[Cu med, cong Ac As Ci fib]
+27.4 +26.3 94 +42 +42 опасность
перегрева
1009.1 996.9 +31.0 0.0
15 20.01 штиль 0 8000 м 9/3 480 м
[Cu med, cong Ac As Ci fib]
+26.8 +25.9 95 +40 +40 очень
душно
1009.5 997.3
18 20.01 З 1 8000 м {дождь} 9/3 480 м
[Cu Sc Ac As Ci fib]
+26.4 +25.6 95 +39 +39 очень
душно
1006.8 994.7 0.0
21 20.01 В 2 8000 м зарница 9/5 450 м
[Cb cap Ac As Ci fib]
+26.0 +25.5 97 +38 +38 очень
душно
1006.7 994.5

 

Местоположение метеостанции Купанг (Индонезия): широта -10.16 долгота 123.66 высота над уровнем моря 108 м.

В архиве по умолчанию представлена погода в Купанге за последнюю неделю. Архивные данные за месяц целиком и за предыдущие месяцы, начиная с января 2011 года, Вы можете получить, выбрав интересующий диапазон дат из раскрывающегося списка и нажав кнопку "Ввод!".


*Определитесь, кто Вы:
робот инопланетянин человек

Внимание! Время в таблицах - всемирное. Для получения местного времени необходимо прибавить поправку, которая равна 8 ч.

Смотрите также архив погоды в соседних городах и на ближайших метеорологических станциях:

Погода на Роти (Индонезия) (90 км)
Погода в Сабу (Индонезия) (204 км)
Погода в Ларантуке (Индонезия) (223 км)
Погода в Маумере (Индонезия) (230 км)
Погода на Алоре (Индонезия) (237 км)
Погода в Аэропорту Умбу Механг Кунда (Индонезия) (369 км)
Погода в Рутенге (Индонезия) (391 км)
Погода на Острове Брауз (Западная Австралия, Австралия) (440 км)
Погода на Острове Троутон (Западная Австралия, Австралия) (483 км)
Погода в Трускотте (Западная Австралия, Австралия) (527 км)

Пояснения к столбцам:

Ветер - указаны скорость ветра в м/с - средняя за 10 мин, порывы в срок и между сроками (в фигурных скобках) и направление, откуда дует ветер: С - северный, СВ - северо-восточный, В - восточный, ЮВ - юго-восточный, Ю - южный, ЮЗ - юго-западный, З - западный, СЗ - северо-западный.
Видимость - горизонтальная дальность видимости в метрах или километрах. При видимости от 1 до 10 км при отсутствии осадков обычно наблюдается дымка, при ухудшении видимости до 1 км и менее - туман. В сухую погоду видимость может ухудшаться дымом, пылью или мглою.
Явления - указаны атмосферные явления, наблюдавшиеся в срок или в последний час перед сроком; фигурными скобками обозначены явления, наблюдавшиеся между сроками (за 1-3 часа до срока); квадратными скобками обозначены град или гололедные отложения с указанием их диаметра в мм.
Облачность - указаны через наклонную черту общая и нижняя облачность в баллах и высота нижней границы облаков в метрах; квадратными скобками обозначены формы облаков: Ci - перистые, Cs - перисто-слоистые, Cc - перисто-кучевые, Ac - высококучевые, As - высокослоистые, Sc - слоисто-кучевые, Ns - слоисто-дождевые, Cu - кучевые, Cb - кучево-дождевые. Подробнее классификацию облаков см. в Атласе облаков (PDF).
T - Температура воздуха - температура, измеренная на высоте 2 м над землей.
Td - Температура точки росы - температура, при понижении до которой содержащийся в воздухе водяной пар достигнет насыщения.
f - Относительная влажность воздуха - влажноcть воздуха, измеренная на высоте 2 м над землей.
Te - Эффективная температура - температура, которую ощущает одетый по сезону человек в тени. Характеристика душности погоды. При расчете учитывается влияние влажности воздуха и скорости ветра на теплоощущения человека.
Tes - Эффективная температура на солнце - температура, которую ощущает человек, с поправкой на солнечный нагрев. Характеристика знойности погоды. Зависит от высоты солнца над горизонтом, облачности и скорости ветра. Ночью, в пасмурную погоду, а также при ветре 12 м/с и более поправка равна нулю.
P - Атмосферное давление - приведенное к уровню моря атмосферное давление.
Po - Атмосферное давление - измеренное на уровне метеостанции атмосферное давление.
Tmin - Минимальная температура - минимум температуры воздуха на высоте 2 м над землей.
Tmax - Максимальная температура - максимум температуры воздуха на высоте 2 м над землей.
R - Количество осадков - Количество выпавших осадков за период времени, мм. При наведении курсора мыши на число - период времени, за который выпало указанное количество осадков.
R24 - Количество осадков - Количество выпавших осадков за 24 часа, мм.
S - Снежный покров - Высота снежного покрова, см. При наведении курсора мыши на число - состояние снежного покрова и степень покрытия местности в баллах.